Simultaneous Nadir Overpasses (SNOs) Predictions

Prediction of SNOs between AQUA and METOP-B Satellite Orbit:

Table of predicted SNOs for the next 14.0 days since TLE Epoch: 3/8/2014
Index Date (AQUA) Time (AQUA) Lat,Lon (AQUA) SZA (AQUA ) Date (METOP-B) Time (METOP-B) Lat,Lon (METOP-B) SZA (METOP-B ) Distance(km) Time Diff (sec)
1 03/08/2014 20:15:32 -73.73, 50.63 101.52 03/08/2014 20:15:01 -73.71, 50.61 101.54 2.80 31
2 03/08/2014 21:05:01 73.80,-141.89 78.55 03/08/2014 21:05:39 73.82,-141.80 78.55 3.12 38
3 03/11/2014 15:49:52 -73.72, 117.08 102.65 03/11/2014 15:49:24 -73.73, 117.07 102.63 1.90 28
4 03/11/2014 16:39:21 73.79, -75.44 77.42 03/11/2014 16:40:03 73.78, -75.48 77.41 1.45 42
5 03/14/2014 11:24:12 -73.75,-176.57 103.72 03/14/2014 11:23:47 -73.75,-176.49 103.73 2.58 25
6 03/14/2014 12:13:40 73.78, -8.99 76.30 03/14/2014 12:14:26 73.79, -9.06 76.30 2.33 46
7 03/17/2014 06:58:29 -73.74,-110.11 104.86 03/17/2014 06:58:09 -73.76,-110.07 104.84 2.12 20
8 03/17/2014 07:47:58 73.82, 57.34 75.22 03/17/2014 07:48:48 73.79, 57.34 75.18 3.84 50
9 03/20/2014 01:43:10 73.20, 149.83 73.46 03/20/2014 01:42:02 73.15, 147.63 73.51 71.12 68
10 03/20/2014 02:32:46 -73.73, -43.66 105.99 03/20/2014 02:32:32 -73.76, -43.67 105.96 2.56 14
11 03/20/2014 03:22:15 73.82, 123.79 74.10 03/20/2014 03:23:10 73.83, 123.84 74.10 2.04 55




NCC Satellite Simultaneous Nadir Overpasses (SNOs) Prediction Service
